McAlester, OK

7:44 PM CST on November 12, 2019 (GMT -0600)
McAlester Regional

Weather History for KMLC - August, 2019

Change the Weather History Date:

Friday, August 30, 2019

  Actual Average Record
Temperature  
Mean Temperature 74 °F -  
Max Temperature 80 °F 91 °F 106 °F (1954)
Min Temperature 68 °F 68 °F 56 °F (1988)
Cooling Degree Days 9    
Growing Degree Days 24 (Base 50)    
Moisture  
Dew Point 68 °F    
Average Humidity 89    
Maximum Humidity 96    
Minimum Humidity 69    
Precipitation  
Precipitation 1.49 in - - ()
Sea Level Pressure  
Sea Level Pressure 30.08 in    
Wind  
Wind Speed 7 mph (ENE)    
Max Wind Speed 22 mph    
Max Gust Speed 44 mph    
Visibility 8 miles    
Events Rain , Thunderstorm    
Averages and records for this station are not official NWS values.
T = Trace of Precipitation, MM = Missing Value Source: NWS Daily Summary

Daily Weather History Graph

Daily Weather History Graph

Search for Another Location

Airport or City:

Astronomy

Aug. 30, 2019 Rise Set
Actual Time 6:54 AM CDT 7:52 PM CDT
Civil Twilight 6:28 AM CDT 8:18 PM CDT
Nautical Twilight 5:57 AM CDT 8:49 PM CDT
Astronomical Twilight 5:25 AM CDT 9:20 PM CDT
Moon 6:58 AM CDT (8/30) 8:29 PM CDT (8/30)
Length of Visible Light 13h 50m
Length of Day
12h 58m
New Moon, 0% of the Moon is Illuminated
Aug 30
New Moon
Sep 5
First Quarter
Sep 13
Full
Sep 21
Last Quarter
Sep 28
New

Hourly Weather History & Observations

Time (CDT) Temp. Heat Index Dew Point Humidity Pressure Visibility Wind Dir Wind Speed Gust Speed Precip Events Conditions
12:53 AM 80.1 °F 83.6 °F 71.1 °F 74% 29.97 in 10.0 mi Variable 5.8 mph - N/A   Clear
1:53 AM 78.1 °F - 71.1 °F 79% 29.99 in 10.0 mi SE 3.5 mph - N/A   Clear
2:53 AM 79.0 °F - 71.1 °F 77% 29.97 in 10.0 mi SE 6.9 mph - N/A   Partly Cloudy
3:53 AM 78.1 °F - 71.1 °F 79% 29.99 in 10.0 mi SE 5.8 mph - N/A   Scattered Clouds
4:53 AM 77.0 °F - 71.1 °F 82% 30.01 in 10.0 mi SE 3.5 mph - N/A   Partly Cloudy
5:53 AM 78.1 °F - 71.1 °F 79% 30.02 in 10.0 mi Variable 3.5 mph - N/A   Scattered Clouds
6:20 AM 75.0 °F - 64.0 °F 69% 30.13 in 10.0 mi NNE 21.9 mph 43.7 mph N/A   Overcast
6:40 AM 73.0 °F - 64.0 °F 73% 30.12 in 10.0 mi NNE 17.3 mph 27.6 mph N/A Thunderstorm Overcast
6:51 AM 69.8 °F - 64.4 °F 83% 30.13 in 2.5 mi NNE 12.7 mph 25.3 mph 0.21 in Rain , Thunderstorm Heavy Thunderstorms and Rain
6:53 AM 69.1 °F - 64.9 °F 87% 30.10 in 1.5 mi NNE 13.8 mph 25.3 mph 0.30 in Rain , Thunderstorm Heavy Thunderstorms and Rain
6:56 AM 68.0 °F - 66.0 °F 93% 30.14 in 1.0 mi NNE 9.2 mph 25.3 mph 0.13 in Rain , Thunderstorm Heavy Thunderstorms and Rain
7:20 AM 68.0 °F - 66.9 °F 96% 30.13 in 1.5 mi Variable 3.5 mph 20.7 mph 0.77 in Rain , Thunderstorm Heavy Rain
7:25 AM 68.0 °F - 66.9 °F 96% 30.13 in 3.0 mi ESE 3.5 mph - 0.79 in Rain , Thunderstorm Heavy Thunderstorms and Rain
7:34 AM 68.0 °F - 66.9 °F 96% 30.14 in 7.0 mi Calm Calm - 0.80 in Rain , Thunderstorm Thunderstorms and Rain
7:53 AM 68.0 °F - 66.0 °F 93% 30.12 in 5.0 mi SSW 4.6 mph - 0.86 in Rain , Thunderstorm Thunderstorms and Rain
8:21 AM 68.0 °F - 66.9 °F 96% 30.12 in 10.0 mi ESE 4.6 mph - 0.04 in Rain , Thunderstorm Light Rain
8:53 AM 68.0 °F - 66.9 °F 96% 30.12 in 6.0 mi Calm Calm - 0.07 in Rain , Thunderstorm Light Rain
9:09 AM 68.0 °F - 66.0 °F 93% 30.14 in 6.0 mi ESE 3.5 mph - 0.03 in Rain Rain
9:53 AM 68.0 °F - 66.0 °F 93% 30.08 in 8.0 mi Variable 5.8 mph - 0.09 in Rain Light Rain
10:53 AM 69.1 °F - 66.0 °F 90% 30.12 in 7.0 mi NNW 16.1 mph 19.6 mph 0.02 in Rain Light Rain
11:05 AM 69.1 °F - 66.9 °F 93% 30.15 in 10.0 mi NNW 10.4 mph - 0.01 in Rain Light Rain
11:29 AM 69.1 °F - 66.9 °F 93% 30.15 in 10.0 mi NW 8.1 mph - 0.01 in Rain , Thunderstorm Light Rain
11:39 AM 70.0 °F - 68.0 °F 93% 30.15 in 10.0 mi SSW 5.8 mph - 0.01 in Rain Light Rain
11:53 AM 70.0 °F - 68.0 °F 93% 30.13 in 10.0 mi SSW 6.9 mph - 0.01 in   Scattered Clouds
12:53 PM 69.1 °F - 66.9 °F 93% 30.11 in 10.0 mi WSW 6.9 mph - 0.01 in Rain Light Rain
1:44 PM 69.1 °F - 66.9 °F 93% 30.12 in 7.0 mi SW 12.7 mph - 0.07 in Rain Light Rain
1:53 PM 69.1 °F - 66.9 °F 93% 30.08 in 7.0 mi SW 11.5 mph - 0.08 in Rain Light Rain
2:09 PM 69.1 °F - 66.9 °F 93% 30.09 in 7.0 mi SSW 13.8 mph 20.7 mph 0.03 in Rain Light Rain
2:31 PM 69.1 °F - 66.9 °F 93% 30.07 in 9.0 mi SSW 9.2 mph - 0.05 in Rain Light Rain
2:53 PM 70.0 °F - 68.0 °F 93% 30.02 in 10.0 mi Variable 4.6 mph - 0.05 in Rain Light Rain
4:53 PM 73.9 °F - 70.0 °F 87% 30.02 in 10.0 mi NE 3.5 mph - 0.00 in   Scattered Clouds
5:16 PM 73.9 °F - 70.0 °F 87% 30.05 in 10.0 mi North 5.8 mph - N/A   Partly Cloudy
5:53 PM 73.9 °F - 70.0 °F 87% 30.01 in 10.0 mi NNE 5.8 mph - N/A   Scattered Clouds
6:10 PM 73.9 °F - 70.0 °F 87% 30.04 in 10.0 mi NE 8.1 mph - N/A   Mostly Cloudy
6:18 PM 73.0 °F - 69.1 °F 87% 30.04 in 10.0 mi NE 6.9 mph - N/A   Mostly Cloudy
6:53 PM 73.0 °F - 69.1 °F 87% 30.02 in 10.0 mi Variable 5.8 mph - N/A   Scattered Clouds
7:06 PM 73.0 °F - 69.1 °F 87% 30.04 in 10.0 mi NE 5.8 mph - N/A   Mostly Cloudy
7:13 PM 73.0 °F - 69.1 °F 87% 30.04 in 10.0 mi NNE 5.8 mph - N/A   Mostly Cloudy
7:20 PM 73.0 °F - 69.1 °F 87% 30.04 in 10.0 mi NNE 5.8 mph - N/A   Scattered Clouds
7:53 PM 72.0 °F - 69.1 °F 91% 30.02 in 10.0 mi NE 4.6 mph - N/A   Clear
8:53 PM 71.1 °F - 69.1 °F 93% 30.04 in 10.0 mi East 3.5 mph - N/A   Partly Cloudy
9:53 PM 71.1 °F - 68.0 °F 90% 30.08 in 10.0 mi Variable 3.5 mph - N/A   Scattered Clouds
10:53 PM 71.1 °F - 68.0 °F 90% 30.08 in 10.0 mi NNE 3.5 mph - N/A   Clear
11:53 PM 69.1 °F - 68.0 °F 96% 30.09 in 10.0 mi Calm Calm - N/A   Partly Cloudy